FW9733 Weather Reports


time (UTC)temp
C
wind
direction
speed
KPH
gust
KPH
rain 1hr
cm
rain 24hr
cm
rain mn
cm
humidity
%
barometer
mb
20260510110047 3 0 0.0 0.0 0.00 0.00 0.00 49 1022.6
20260510104551 3 0 0.0 1.6 0.00 0.00 0.00 48 1022.5
20260510103052 3 0 0.0 0.0 0.00 0.00 0.00 47 1022.5
20260510101548 3 0 0.0 0.0 0.00 0.00 0.00 47 1022.5
20260510100054 3 0 0.0 0.0 0.00 0.00 0.00 46 1022.4
20260510094602 3 0 0.0 0.0 0.00 0.00 0.00 46 1022.4
20260510093110 3 0 0.0 1.6 0.00 0.00 0.00 46 1022.3
20260510091550 4 0 0.0 0.0 0.00 0.00 0.00 45 1022.3
20260510090049 4 0 0.0 0.0 0.00 0.00 0.00 46 1022.3
20260510084550 4 0 0.0 0.0 0.00 0.00 0.00 46 1022.3
20260510083058 4 0 0.0 0.0 0.00 0.00 0.00 46 1022.4
20260510081549 4 0 0.0 0.0 0.00 0.00 0.00 45 1022.5
20260510080056 5 0 0.0 0.0 0.00 0.00 0.00 45 1022.8
20260510074549 5 0 0.0 0.0 0.00 0.00 0.00 44 1022.7
20260510073055 5 0 0.0 0.0 0.00 0.00 0.00 41 1022.7
20260510071549 5 0 0.0 0.0 0.00 0.00 0.00 40 1022.7
20260510070050 5 0 0.0 1.6 0.00 0.00 0.00 39 1022.7
20260510064549 5 0 0.0 0.0 0.00 0.00 0.00 39 1022.9
20260510063045 6 0 0.0 0.0 0.00 0.00 0.00 37 1022.8
20260510061544 6 72 0.0 0.0 0.00 0.00 0.00 36 1022.9
20260510060049 6 0 0.0 0.0 0.00 0.00 0.00 36 1022.9
20260510054547 6 0 0.0 0.0 0.00 0.00 0.00 37 1022.8
20260510053049 7 0 0.0 0.0 0.00 0.00 0.00 37 1022.9
20260510051556 7 0 0.0 0.0 0.00 0.00 0.00 37 1022.9
20260510050046 7 0 0.0 0.0 0.00 0.00 0.00 36 1022.9
20260510044601 8 0 0.0 0.0 0.00 0.00 0.00 35 1022.8
20260510043048 8 0 0.0 0.0 0.00 0.00 0.00 35 1022.5
20260510041548 8 0 0.0 0.0 0.00 0.00 0.00 33 1022.4
20260510040057 9 0 0.0 1.6 0.00 0.00 0.00 32 1022.3
20260510034545 10 0 0.0 0.0 0.00 0.00 0.00 31 1022.3
20260510033059 10 0 0.0 1.6 0.00 0.00 0.00 32 1022.0
20260510031545 11 0 0.0 0.0 0.00 0.00 0.00 32 1021.9
20260510030101 12 0 0.0 0.0 0.00 0.00 0.00 31 1021.7
20260510024554 13 0 0.0 1.6 0.00 0.00 0.00 29 1021.6
20260510023050 15 0 0.0 3.2 0.00 0.00 0.00 27 1021.7
20260510021546 16 0 0.0 1.6 0.00 0.00 0.00 24 1021.7
20260510020046 17 0 0.0 1.6 0.00 0.00 0.00 21 1021.6
20260510014556 18 0 0.0 1.6 0.00 0.00 0.00 19 1021.6
20260510013049 18 148 0.0 4.8 0.00 0.00 0.00 22 1021.5
20260510011548 20 0 0.0 3.2 0.00 0.00 0.00 19 1021.4
20260510010047 21 129 0.0 4.8 0.00 0.00 0.00 16 1021.4
20260510004550 22 0 0.0 4.8 0.00 0.00 0.00 15 1021.4
20260510003047 21 0 0.0 4.8 0.00 0.00 0.00 15 1021.3
20260510001550 22 139 0.0 6.4 0.00 0.00 0.00 12 1021.3
20260510000051 21 331 0.0 6.4 0.00 0.00 0.00 16 1021.1
20260509234549 21 158 1.6 9.7 0.00 0.00 0.00 15 1021.3
20260509233051 22 0 1.6 4.8 0.00 0.00 0.00 15 1021.2
20260509231553 22 346 0.0 6.4 0.00 0.00 0.00 15 1021.4
20260509230058 22 326 1.6 9.7 0.00 0.00 0.00 14 1021.4
20260509224555 23 154 1.6 8.0 0.00 0.00 0.00 14 1021.5
20260509223051 23 176 0.0 8.0 0.00 0.00 0.00 13 1021.5
20260509221551 23 158 1.6 8.0 0.00 0.00 0.00 13 1021.7
20260509220055 24 142 0.0 6.4 0.00 0.00 0.00 14 1021.9
20260509214546 25 195 1.6 6.4 0.00 0.00 0.00 12 1021.9
20260509213057 25 106 1.6 9.7 0.00 0.00 0.00 11 1022.0
20260509211552 25 220 0.0 8.0 0.00 0.00 0.00 11 1022.1
20260509210058 26 0 3.2 9.7 0.00 0.00 0.00 10 1022.1
20260509204550 26 160 1.6 6.4 0.00 0.00 0.00 10 1022.2
20260509203048 26 103 0.0 9.7 0.00 0.00 0.00 11 1022.2
20260509201549 26 332 0.0 6.4 0.00 0.00 0.00 12 1022.3
20260509200046 26 130 1.6 8.0 0.00 0.00 0.00 13 1022.3
20260509194548 26 216 1.6 4.8 0.00 0.00 0.00 13 1022.3
20260509193052 26 218 1.6 8.0 0.00 0.00 0.00 12 1022.3
20260509191550 26 109 1.6 6.4 0.00 0.00 0.00 11 1022.4
20260509190046 26 0 0.0 6.4 0.00 0.00 0.00 13 1022.4
20260509184554 26 325 0.0 6.4 0.00 0.00 0.00 11 1022.3
20260509183048 25 321 1.6 8.0 0.00 0.00 0.00 12 1022.4
20260509181557 24 229 1.6 6.4 0.00 0.00 0.00 12 1022.4
20260509180051 24 246 0.0 4.8 0.00 0.00 0.00 12 1022.3
20260509174546 23 245 1.6 8.0 0.00 0.00 0.00 11 1022.3
20260509173050 24 326 1.6 6.4 0.00 0.00 0.00 10 1022.3
20260509171555 23 274 0.0 4.8 0.00 0.00 0.00 13 1022.3
20260509170052 23 349 1.6 8.0 0.00 0.00 0.00 12 1022.3
20260509164551 23 0 1.6 4.8 0.00 0.00 0.00 13 1022.2
20260509163050 22 0 0.0 4.8 0.00 0.00 0.00 19 1022.1
20260509161548 21 0 0.0 3.2 0.00 0.00 0.00 22 1022.1
20260509160049 19 58 0.0 1.6 0.00 0.00 0.00 27 1022.2
20260509154548 17 0 0.0 1.6 0.00 0.00 0.00 40 1022.1
20260509153102 14 0 0.0 0.0 0.00 0.00 0.00 42 1022.3
20260509151554 11 0 0.0 0.0 0.00 0.00 0.00 51 1022.4
20260509150053 7 0 0.0 1.6 0.00 0.00 0.00 59 1022.3
20260509144557 5 0 0.0 1.6 0.00 0.00 0.00 62 1022.5
20260509143054 3 0 0.0 0.0 0.00 0.00 0.00 62 1022.5
20260509141548 2 0 0.0 0.0 0.00 0.00 0.00 61 1022.3
20260509140052 2 0 0.0 0.0 0.00 0.00 0.00 61 1022.2
20260509134545 2 0 0.0 0.0 0.00 0.00 0.00 60 1022.1
20260509133046 1 0 0.0 1.6 0.00 0.00 0.00 59 1022.0
20260509131548 1 0 0.0 0.0 0.00 0.00 0.00 57 1021.8
20260509130050 1 0 0.0 1.6 0.00 0.00 0.00 58 1021.8
20260509124548 1 0 0.0 1.6 0.00 0.00 0.00 57 1021.8
20260509123047 2 0 0.0 1.6 0.00 0.00 0.00 57 1021.7
20260509121601 2 0 0.0 1.6 0.00 0.00 0.00 57 1021.7
20260509120106 2 0 0.0 1.6 0.00 0.00 0.00 56 1021.7
20260509114547 2 112 0.0 1.6 0.00 0.00 0.00 55 1021.8
20260509113055 2 0 0.0 1.6 0.00 0.00 0.00 53 1021.8
20260509111548 2 0 0.0 0.0 0.00 0.00 0.00 52 1021.9